Tracking 22881 objects as of 19-Apr-2021
HD Live streaming from Space Station
objects crossing your sky now

STARLINK-1302

Track STARLINK-1302 now!
10-day predictions
STARLINK-1302 is classified as:


NORAD ID: 45375
Int'l Code: 2020-019R
Perigee: 553.1 km
Apogee: 555.6 km
Inclination: 53.1 °
Period: 95.6 minutes
Semi major axis: 6925 km
RCS: Unknown
Launch date: March 18, 2020
Source: United States (US)
Launch site: AIR FORCE EASTERN TEST RANGE (AFETR)
aabbcc
Your satellite tracking list
Your tracking list is empty




NASA's NSSDC Master Catalog

Two Line Element Set (TLE):
1 45375U 20019R   21109.44789816 -.00001401  00000-0 -75195-4 0  9995
2 45375  53.0571 260.8775 0001850 119.2611 240.8563 15.06394625 60653
Source of the keplerian elements: AFSPC